1520827200.66,52761,8.38,72298.8,-0.31,-1.43,-1.39,0,*68
1520827201.88,52762,8.38,72294.8,-0.29,-1.39,-1.29,0,*6E
1520827203.12,52763,8.38,72252.8,-0.29,-1.35,-1.35,0,*6E
1520827204.4,52764,8.38,72266.0,-0.31,-1.39,-1.39,0,*60
1520827205.61,52765,8.38,72280.3,-0.31,-1.33,-1.33,0,*61
1520827206.86,52766,8.38,72218.3,-0.31,-1.29,-1.39,0,*63
1520827208.13,52767,8.38,72226.5,-0.31,-1.39,-1.39,0,*63
1520827209.35,52768,8.38,72246.8,-0.31,-1.33,-1.33,0,*6C
1520827210.62,52769,8.38,72248.8,-0.31,-1.39,-1.39,0,*6D
1520827211.84,52770,8.38,72248.0,-0.31,-1.33,-1.33,0,*65
1520827213.08,52771,8.38,72268.8,-0.31,-1.39,-1.33,0,*6E
1520827214.33,52772,8.38,72276.8,-0.31,-1.33,-1.39,0,*6D
1520827215.55,52773,8.38,72266.8,-0.31,-1.33,-1.33,0,*66
1520827216.79,52774,8.38,72272.5,-0.31,-1.33,-1.39,0,*6B
1520827218.04,52775,8.38,72296.0,-0.31,-1.33,-1.39,0,*6A
1520827219.26,52776,8.38,72292.3,-0.31,-1.29,-1.33,0,*68
1520827220.47,52777,8.38,72296.0,-0.33,-1.35,-1.33,0,*66
1520827221.69,52778,8.38,72298.0,-0.31,-1.29,-1.29,0,*6D
1520827222.91,52779,8.38,72300.8,-0.31,-1.29,-1.29,0,*6C
1520827224.13,52780,8.38,72312.8,-0.31,-1.29,-1.29,0,*6A
1520827225.37,52781,8.38,72310.5,-0.31,-1.29,-1.39,0,*6A
1520827226.59,52782,8.38,72308.0,-0.31,-1.33,-1.29,0,*63
1520827227.81,52783,8.38,72312.3,-0.31,-1.29,-1.29,0,*69
1520827229.03,52784,8.38,72306.0,-0.31,-1.29,-1.29,0,*6E
1520827230.22,52785,8.38,72296.0,-0.33,-1.33,-1.33,0,*6D
1520827231.44,52786,8.38,72304.3,-0.31,-1.21,-1.29,0,*64
1520827232.64,52787,8.38,72318.0,-0.33,-1.33,-1.33,0,*6F
1520827233.85,52788,8.38,72318.8,-0.31,-1.29,-1.29,0,*62
1520827235.08,52789,8.38,72316.3,-0.31,-1.29,-1.21,0,*6B
1520827236.27,52790,8.38,72306.8,-0.33,-1.33,-1.25,0,*6E
1520827237.49,52791,8.38,72318.8,-0.31,-1.17,-1.21,0,*6F
1520827238.72,52792,8.38,72312.0,-0.31,-1.21,-1.21,0,*69
1520827239.94,52793,8.38,72318.3,-0.31,-1.21,-1.21,0,*68
1520827241.16,52794,8.38,72316.5,-0.31,-1.21,-1.17,0,*6A
1520827242.38,52795,8.38,72322.8,-0.31,-1.21,-1.17,0,*6B
1520827243.6,52796,8.38,72314.3,-0.31,-1.21,-1.21,0,*6D
1520827244.82,52797,8.38,72316.3,-0.31,-1.17,-1.21,0,*69
1520827246.07,52798,8.38,72326.0,-0.31,-1.09,-1.21,0,*69
1520827247.33,52799,8.38,72318.5,-0.31,-1.09,-1.09,0,*62
1520827248.55,52800,8.38,72336.3,-0.31,-1.17,-1.17,0,*6D
1520827249.79,52801,8.38,72344.3,-0.31,-1.09,-1.17,0,*63
1520827251.01,52802,8.38,72336.3,-0.31,-1.21,-1.17,0,*6A
1520827252.23,52803,8.38,72322.3,-0.31,-1.17,-1.17,0,*6E
1520827253.45,52804,8.38,72316.3,-0.31,-1.17,-1.17,0,*69
1520827254.67,52805,8.38,72296.5,-0.31,-1.17,-1.17,0,*68
1520827255.91,52806,8.38,72336.3,-0.31,-1.09,-1.17,0,*64
1520827257.15,52807,8.38,72314.8,-0.31,-1.17,-1.09,0,*65
1520827258.4,52808,8.38,72296.8,-0.31,-1.17,-1.09,0,*6A
1520827259.66,52809,8.38,72280.3,-0.31,-1.09,-1.09,0,*64
1520827260.9,52810,8.38,72268.8,-0.31,-1.17,-1.09,0,*63
1520827262.14,52811,8.38,72282.3,-0.31,-1.09,-1.17,0,*62
1520827263.4,52812,8.38,72286.0,-0.31,-1.09,-1.09,0,*6E
1520827264.64,52813,8.38,72270.8,-0.29,-1.13,-1.13,0,*66
1520827265.89,52814,8.38,72298.0,-0.29,-1.05,-1.05,0,*61
1520827267.14,52815,8.38,72300.8,-0.29,-1.05,-1.05,0,*60
1520827268.38,52816,8.38,72318.5,-0.29,-1.13,-1.13,0,*63
1520827269.64,52817,8.38,72314.5,-0.31,-1.09,-1.09,0,*6B
1520827270.88,52818,8.38,72330.8,-0.29,-1.13,-1.05,0,*6A
1520827272.12,52819,8.38,72310.0,-0.29,-1.13,-1.13,0,*6C
1520827273.37,52820,8.38,72310.3,-0.29,-1.05,-1.05,0,*66
1520827274.61,52821,8.38,72308.8,-0.29,-1.13,-1.05,0,*60
1520827275.86,52822,8.38,72318.8,-0.29,-1.05,-1.05,0,*64
1520827277.11,52823,8.38,72318.8,-0.29,-1.13,-1.05,0,*62
1520827278.35,52824,8.38,72360.8,-0.29,-1.05,-1.13,0,*65
1520827279.59,52825,8.38,72314.0,-0.29,-1.05,-1.05,0,*63
1520827280.84,52826,8.38,72318.0,-0.29,-1.05,-1.05,0,*60
1520827282.09,52827,8.38,72336.3,-0.29,-1.05,-1.13,0,*66
1520827283.33,52828,8.38,72294.3,-0.29,-1.13,-1.05,0,*69
1520827284.57,52829,8.38,72296.3,-0.29,-1.13,-1.05,0,*68
1520827285.84,52830,8.38,72282.5,-0.27,-1.05,-1.05,0,*69
1520827287.09,52831,8.38,72310.8,-0.29,-1.13,-1.05,0,*61
1520827288.33,52832,8.38,72310.5,-0.29,-1.13,-1.13,0,*65
1520827289.58,52833,8.38,72288.5,-0.27,-1.13,-1.13,0,*6A
1520827290.82,52834,8.38,72256.8,-0.29,-1.13,-1.13,0,*63
1520827292.06,52835,8.38,72264.0,-0.29,-1.13,-1.13,0,*62
1520827293.33,52836,8.38,72286.5,-0.27,-1.05,-1.05,0,*6F
1520827294.59,52837,8.38,72264.0,-0.27,-1.13,-1.13,0,*6E
1520827295.83,52838,8.38,72250.5,-0.29,-1.13,-1.05,0,*68
1520827297.08,52839,8.38,72240.8,-0.29,-1.13,-1.05,0,*69
1520827298.32,52840,8.38,72276.0,-0.29,-1.13,-1.13,0,*60
1520827299.51,52841,8.38,72250.8,-0.29,-1.17,-1.17,0,*61
1520827300.74,52842,8.38,72252.0,-0.29,-1.05,-1.17,0,*61
1520827301.95,52843,8.38,72260.0,-0.27,-1.25,-1.25,0,*6D
1520827303.14,52844,8.38,72302.8,-0.29,-1.17,-1.25,0,*65
1520827304.33,52845,8.38,72290.0,-0.29,-1.25,-1.25,0,*65
1520827305.52,52846,8.38,72300.8,-0.29,-1.25,-1.29,0,*6A
1520827306.71,52847,8.38,72304.8,-0.29,-1.25,-1.25,0,*67
1520827307.9,52848,8.38,72292.8,-0.29,-1.25,-1.25,0,*68
1520827309.12,52849,8.38,72300.8,-0.27,-1.29,-1.17,0,*6A
1520827310.31,52850,8.38,72322.3,-0.29,-1.29,-1.25,0,*6D
1520827311.5,52851,8.38,72342.8,-0.29,-1.25,-1.25,0,*60
1520827312.68,52852,8.38,72352.5,-0.29,-1.25,-1.25,0,*63
1520827313.88,52853,8.38,72346.3,-0.29,-1.29,-1.25,0,*6E
1520827315.07,52854,8.38,72358.0,-0.29,-1.25,-1.25,0,*65
1520827316.28,52855,8.38,72360.3,-0.27,-1.25,-1.25,0,*6A
1520827317.47,52856,8.38,72374.8,-0.29,-1.17,-1.17,0,*67
1520827318.67,52857,8.38,72392.5,-0.29,-1.25,-1.17,0,*67
1520827319.89,52858,8.38,72358.8,-0.29,-1.17,-1.13,0,*6D
1520827321.08,52859,8.38,72342.8,-0.29,-1.17,-1.17,0,*68
1520827322.3,52860,8.38,72354.0,-0.29,-1.17,-1.13,0,*66
1520827323.56,52861,8.38,72356.5,-0.27,-1.13,-1.13,0,*6D
1520827324.82,52862,8.38,72334.5,-0.27,-1.13,-1.13,0,*6E
1520827326.04,52863,8.38,72354.8,-0.29,-1.13,-1.17,0,*65
1520827327.24,52864,8.38,72348.0,-0.29,-1.17,-1.17,0,*66
1520827328.43,52865,8.38,72348.5,-0.29,-1.17,-1.17,0,*67
1520827329.66,52866,8.38,72306.0,-0.31,-1.21,-1.21,0,*6D
1520827330.87,52867,8.38,72304.0,-0.27,-1.17,-1.25,0,*6A
1520827332.06,52868,8.38,72320.5,-0.29,-1.25,-1.25,0,*6A
1520827333.27,52869,8.38,72328.3,-0.27,-1.25,-1.25,0,*65
1520827334.47,52870,8.38,72344.8,-0.29,-1.17,-1.17,0,*63
1520827335.68,52871,8.38,72344.3,-0.29,-1.35,-1.25,0,*63
1520827336.87,52872,8.38,72338.0,-0.29,-1.25,-1.17,0,*60
1520827338.07,52873,8.38,72324.5,-0.29,-1.25,-1.17,0,*61
1520827339.26,52874,8.38,72318.8,-0.29,-1.17,-1.25,0,*66
1520827340.45,52875,8.38,72274.5,-0.29,-1.25,-1.25,0,*66
1520827341.67,52876,8.38,72262.5,-0.29,-1.29,-1.35,0,*68
1520827342.87,52877,8.38,72282.3,-0.29,-1.29,-1.25,0,*68
1520827344.08,52878,8.38,72298.5,-0.31,-1.33,-1.29,0,*69
1520827345.3,52879,8.38,72286.8,-0.31,-1.33,-1.29,0,*68
1520827346.55,52880,8.38,72282.0,-0.31,-1.39,-1.33,0,*6F
1520827347.79,52881,8.38,72280.0,-0.31,-1.33,-1.39,0,*6E
1520827349.01,52882,8.38,72266.0,-0.31,-1.33,-1.33,0,*67
1520827350.26,52883,8.38,72234.3,-0.31,-1.33,-1.39,0,*6C
1520827351.47,52884,8.38,72242.5,-0.31,-1.33,-1.33,0,*61
1520827352.75,52885,8.38,72228.5,-0.31,-1.39,-1.39,0,*60
1520827353.99,52886,8.38,72256.5,-0.31,-1.43,-1.51,0,*60
1520827355.2,52887,8.38,72246.0,-0.31,-1.51,-1.51,0,*62
1520827356.41,52888,8.38,72256.8,-0.31,-1.51,-1.51,0,*6D
1520827357.65,52889,8.38,72268.8,-0.31,-1.55,-1.43,0,*6B
1520827358.87,52890,8.38,72264.0,-0.31,-1.55,-1.51,0,*60
1520827360.09,52891,8.38,72252.0,-0.33,-1.47,-1.55,0,*64
1520827361.3,52892,8.38,72256.5,-0.33,-1.47,-1.55,0,*67
1520827362.55,52893,8.38,72268.0,-0.31,-1.43,-1.51,0,*64
1520827363.8,52894,8.38,72252.8,-0.33,-1.47,-1.47,0,*62
1520827364.98,52895,8.38,72276.8,-0.33,-1.55,-1.55,0,*63
1520827366.2,52896,8.38,72282.3,-0.33,-1.55,-1.47,0,*63
1520827367.41,52897,8.38,72276.0,-0.31,-1.51,-1.51,0,*63
1520827368.65,52898,8.38,72256.0,-0.31,-1.51,-1.43,0,*6F
1520827369.87,52899,8.38,72272.5,-0.33,-1.47,-1.55,0,*6C
1520827371.06,52900,8.38,72270.0,-0.33,-1.55,-1.55,0,*6E
1520827372.25,52901,8.38,72260.0,-0.33,-1.59,-1.55,0,*63
1520827373.43,52902,8.38,72272.3,-0.33,-1.55,-1.59,0,*60
1520827374.63,52903,8.38,72256.5,-0.33,-1.55,-1.67,0,*6C
1520827375.82,52904,8.38,72268.8,-0.33,-1.67,-1.59,0,*67
1520827377.03,52905,8.38,72282.0,-0.35,-1.59,-1.59,0,*6D
1520827378.24,52906,8.38,72302.8,-0.35,-1.55,-1.59,0,*62
1520827379.45,52907,8.38,72296.3,-0.35,-1.55,-1.55,0,*6F
1520827380.64,52908,8.38,72294.0,-0.37,-1.59,-1.51,0,*6A
1520827381.91,52909,8.38,72302.3,-0.35,-1.47,-1.47,0,*61
1520827383.18,52910,8.38,72298.5,-0.35,-1.47,-1.47,0,*69
1520827384.45,52911,8.38,72310.0,-0.35,-1.47,-1.47,0,*68
1520827385.72,52912,8.38,72300.5,-0.35,-1.43,-1.35,0,*6A
1520827386.98,52913,8.38,72316.0,-0.35,-1.35,-1.43,0,*6B
1520827388.25,52914,8.38,72322.0,-0.35,-1.35,-1.35,0,*6D
1520827389.52,52915,8.38,72342.8,-0.35,-1.35,-1.35,0,*6C
1520827390.76,52916,8.38,72348.8,-0.35,-1.35,-1.33,0,*69
1520827392.02,52917,8.38,72358.3,-0.35,-1.35,-1.35,0,*6E
1520827393.29,52918,8.38,72358.0,-0.35,-1.35,-1.35,0,*61
1520827394.51,52919,8.38,72346.0,-0.35,-1.33,-1.33,0,*60
1520827395.72,52920,8.38,72344.3,-0.35,-1.25,-1.33,0,*6D
1520827396.94,52921,8.38,72354.5,-0.35,-1.33,-1.33,0,*6B
1520827398.15,52922,8.38,72356.3,-0.35,-1.25,-1.33,0,*6F
1520827399.37,52923,8.38,72356.3,-0.37,-1.29,-1.35,0,*66
1520827400.59,52924,8.38,72350.8,-0.35,-1.33,-1.33,0,*6E
1520827401.81,52925,8.38,72348.3,-0.35,-1.33,-1.33,0,*6F
1520827403.02,52926,8.38,72356.5,-0.35,-1.33,-1.25,0,*6B
1520827404.24,52927,8.38,72348.0,-0.35,-1.33,-1.33,0,*6D
1520827405.45,52928,8.38,72344.8,-0.35,-1.25,-1.25,0,*62
1520827406.66,52929,8.38,72352.5,-0.35,-1.25,-1.25,0,*63
1520827407.88,52930,8.38,72356.3,-0.35,-1.25,-1.25,0,*6B
1520827409.12,52931,8.38,72344.3,-0.35,-1.13,-1.21,0,*6B
1520827410.36,52932,8.38,72356.8,-0.33,-1.13,-1.13,0,*6F
1520827411.62,52933,8.38,72348.5,-0.35,-1.13,-1.13,0,*68
1520827412.88,52934,8.38,72324.3,-0.35,-1.13,-1.13,0,*6F
1520827414.12,52935,8.38,72338.5,-0.33,-1.13,-1.13,0,*68
1520827415.34,52936,8.38,72324.8,-0.33,-1.21,-1.13,0,*6A
1520827416.58,52937,8.38,72308.8,-0.33,-1.13,-1.13,0,*6A
1520827417.85,52938,8.38,72322.8,-0.31,-1.05,-1.09,0,*6B
1520827419.08,52939,8.38,72334.0,-0.33,-1.09,-1.09,0,*64
1520827420.32,52940,8.38,72320.8,-0.33,-1.09,-1.09,0,*6A
1520827421.56,52941,8.38,72350.5,-0.33,-1.09,-1.09,0,*6B
1520827422.83,52942,8.38,72338.3,-0.31,-1.05,-1.05,0,*6A
1520827424.1,52943,8.38,72306.0,-0.31,-1.05,-1.05,0,*6B
1520827425.35,52944,8.38,72322.0,-0.33,-1.09,-1.05,0,*62
1520827426.58,52945,8.38,72312.5,-0.33,-1.09,-1.09,0,*6F
1520827427.82,52946,8.38,72294.0,-0.33,-1.09,-1.09,0,*6C
1520827429.09,52947,8.38,72300.3,-0.31,-1.05,-1.05,0,*6F
1520827430.36,52948,8.38,72306.0,-0.31,-1.05,-1.05,0,*60
1520827431.63,52949,8.38,72312.8,-0.31,-1.05,-1.09,0,*6D
1520827432.89,52950,8.38,72314.8,-0.31,-1.09,-1.13,0,*62
1520827434.15,52951,8.38,72322.8,-0.31,-1.09,-1.09,0,*68
1520827435.41,52952,8.38,72314.8,-0.31,-1.09,-1.09,0,*6B
1520827436.66,52953,8.38,72320.5,-0.29,-1.05,-1.05,0,*63
1520827437.92,52954,8.38,72288.0,-0.31,-1.09,-1.09,0,*6D
1520827439.18,52955,8.38,72300.8,-0.31,-1.09,-1.09,0,*6C
1520827440.45,52956,8.38,72282.3,-0.31,-1.05,-1.09,0,*63
1520827441.72,52957,8.38,72270.8,-0.31,-1.05,-1.05,0,*6E
1520827442.99,52958,8.38,72278.5,-0.31,-1.05,-1.01,0,*65
1520827444.26,52959,8.38,72262.3,-0.31,-1.05,-1.05,0,*60
1520827445.5,52960,8.38,72262.0,-0.29,-1.01,-1.01,0,*63
1520827446.74,52961,8.38,72258.8,-0.29,-1.01,-1.01,0,*62
1520827447.98,52962,8.38,72254.5,-0.29,-0.97,-1.01,0,*5F
1520827449.22,52963,8.38,72266.3,-0.29,-1.01,-1.01,0,*60
1520827450.46,52964,8.38,72264.8,-0.29,-1.01,-1.01,0,*67
1520827451.73,52965,8.38,72282.3,-0.27,-1.01,-1.01,0,*68
1520827452.97,52966,8.38,72286.8,-0.29,-1.01,-1.01,0,*65
1520827454.21,52967,8.38,72294.0,-0.29,-1.01,-1.01,0,*64
1520827455.45,52968,8.38,72276.3,-0.29,-1.01,-1.01,0,*6B
1520827456.69,52969,8.38,72258.3,-0.29,-1.01,-1.01,0,*6A
1520827457.95,52970,8.38,72282.8,-0.27,-1.01,-1.01,0,*6C
1520827459.22,52971,8.38,72264.0,-0.27,-1.01,-1.01,0,*6D
1520827460.46,52972,8.38,72262.3,-0.29,-1.01,-1.01,0,*60
1520827461.7,52973,8.38,72304.5,-0.29,-1.05,-1.01,0,*65
1520827462.97,52974,8.38,72350.3,-0.27,-1.05,-1.01,0,*6C
1520827464.22,52975,8.38,72294.0,-0.29,-1.05,-1.05,0,*67
1520827465.46,52976,8.38,72302.5,-0.29,-1.05,-1.05,0,*64
1520827466.71,52977,8.38,72278.5,-0.29,-1.13,-1.05,0,*62
1520827467.97,52978,8.38,72264.0,-0.27,-1.13,-1.05,0,*63
1520827469.22,52979,8.38,72230.8,-0.29,-1.13,-1.05,0,*6C
1520827470.47,52980,8.38,72248.8,-0.29,-1.05,-1.05,0,*6D
1520827471.73,52981,8.38,72268.3,-0.27,-1.05,-1.05,0,*62
1520827473.0,52982,8.38,72294.0,-0.27,-1.05,-1.05,0,*61
1520827474.27,52983,8.38,72276.0,-0.27,-1.05,-1.05,0,*60
1520827475.52,52984,8.38,72302.3,-0.29,-1.05,-1.05,0,*69
1520827476.76,52985,8.38,72288.0,-0.29,-1.05,-1.13,0,*6F
1520827478.01,52986,8.38,72260.3,-0.27,-1.17,-1.05,0,*66
1520827479.27,52987,8.38,72246.8,-0.27,-1.13,-1.05,0,*63
1520827480.54,52988,8.38,72268.3,-0.27,-1.13,-1.05,0,*6C
1520827481.78,52989,8.38,72276.0,-0.29,-1.13,-1.05,0,*63
1520827483.04,52990,8.38,72278.5,-0.27,-1.13,-1.13,0,*62
1520827484.28,52991,8.38,72306.0,-0.29,-1.13,-1.13,0,*6D
1520827485.55,52992,8.38,72302.0,-0.27,-1.05,-1.05,0,*60
1520827486.82,52993,8.38,72294.5,-0.27,-1.05,-1.05,0,*61
1520827488.08,52994,8.38,72300.3,-0.27,-1.05,-1.05,0,*66
1520827489.33,52995,8.38,72312.3,-0.29,-1.13,-1.05,0,*6E
1520827490.6,52996,8.38,72304.3,-0.27,-1.05,-1.05,0,*64
1520827491.86,52997,8.38,72316.8,-0.27,-1.13,-1.05,0,*62
1520827493.13,52998,8.38,72292.0,-0.27,-1.05,-1.05,0,*6A
1520827494.4,52999,8.38,72304.0,-0.27,-1.05,-1.01,0,*6F
1520827495.66,53000,8.38,72288.8,-0.27,-1.05,-1.01,0,*67
1520827496.93,53001,8.38,72304.5,-0.27,-1.05,-1.01,0,*66
1520827498.19,53002,8.38,72312.0,-0.27,-1.05,-1.01,0,*65
1520827499.46,53003,8.38,72304.8,-0.27,-1.05,-1.01,0,*64
1520827500.72,53004,8.38,72316.8,-0.27,-1.05,-1.01,0,*63
1520827501.98,53005,8.38,72308.0,-0.27,-0.97,-1.01,0,*58
1520827503.24,53006,8.38,72306.8,-0.27,-1.01,-1.01,0,*65
1520827504.5,53007,8.38,72294.3,-0.27,-1.01,-1.01,0,*64
1520827505.76,53008,8.38,72304.0,-0.27,-1.01,-0.97,0,*55
1520827507.02,53009,8.38,72298.5,-0.27,-1.01,-1.01,0,*6A
1520827508.28,53010,8.38,72294.3,-0.27,-1.01,-1.01,0,*62
1520827509.52,53011,8.38,72304.8,-0.25,-0.97,-0.97,0,*61
1520827510.75,53012,8.38,72278.0,-0.25,-0.97,-0.97,0,*62
1520827511.99,53013,8.38,72296.3,-0.25,-1.01,-1.01,0,*63
1520827513.23,53014,8.38,72292.3,-0.25,-1.01,-1.01,0,*64
1520827514.5,53015,8.38,72288.3,-0.27,-1.05,-1.05,0,*67
1520827515.74,53016,8.38,72298.0,-0.25,-1.01,-1.01,0,*66
1520827516.98,53017,8.38,72308.0,-0.25,-1.01,-1.01,0,*67
1520827518.24,53018,8.38,72310.3,-0.23,-1.01,-1.01,0,*6E
1520827519.48,53019,8.38,72304.5,-0.25,-1.01,-1.01,0,*69
1520827520.75,53020,8.38,72300.5,-0.23,-1.01,-1.01,0,*65
1520827522.0,53021,8.38,72266.3,-0.23,-0.97,-1.01,0,*5A
1520827523.24,53022,8.38,72238.5,-0.25,-0.97,-1.01,0,*5F
1520827524.48,53023,8.38,72276.5,-0.25,-0.97,-1.01,0,*5E
1520827525.72,53024,8.38,72246.8,-0.25,-0.97,-1.01,0,*59
1520827526.96,53025,8.38,72302.8,-0.25,-1.01,-1.09,0,*6E
1520827528.2,53026,8.38,72266.8,-0.25,-1.01,-1.01,0,*65
1520827529.44,53027,8.38,72264.3,-0.25,-1.01,-1.01,0,*64
1520827530.68,53028,8.38,72246.5,-0.25,-1.01,-1.09,0,*63
1520827531.92,53029,8.38,72292.3,-0.25,-1.01,-1.01,0,*6A
1520827533.18,53030,8.38,72280.8,-0.23,-1.01,-1.01,0,*64
1520827534.43,53031,8.38,72288.5,-0.25,-1.01,-1.01,0,*63
1520827535.69,53032,8.38,72288.5,-0.23,-1.01,-1.01,0,*66
1520827536.93,53033,8.38,72282.0,-0.25,-1.01,-1.01,0,*61
1520827538.19,53034,8.38,72262.8,-0.23,-1.01,-1.09,0,*68
1520827539.43,53035,8.38,72280.0,-0.25,-1.01,-1.01,0,*67
1520827540.69,53036,8.38,72280.3,-0.23,-1.01,-1.09,0,*6A
1520827541.95,53037,8.38,72282.3,-0.23,-1.01,-1.01,0,*63
1520827543.19,53038,8.38,72292.0,-0.25,-1.01,-1.01,0,*6A
1520827544.44,53039,8.38,72274.0,-0.25,-1.01,-1.01,0,*6B
1520827545.68,53040,8.38,72278.5,-0.25,-1.01,-1.01,0,*65
1520827546.92,53041,8.38,72268.0,-0.25,-1.01,-1.01,0,*64
1520827548.18,53042,8.38,72236.5,-0.23,-1.01,-1.01,0,*61
1520827549.42,53043,8.38,72248.0,-0.25,-1.09,-1.01,0,*6E
1520827550.66,53044,8.38,72238.3,-0.25,-1.09,-1.01,0,*69
1520827551.9,53045,8.38,72232.8,-0.25,-1.01,-1.01,0,*60
1520827553.13,53046,8.38,72244.3,-0.25,-1.09,-1.01,0,*6B
1520827554.37,53047,8.38,72268.0,-0.25,-1.09,-1.01,0,*6A
1520827555.63,53048,8.38,72270.8,-0.23,-1.09,-1.09,0,*6B
1520827556.87,53049,8.38,72266.3,-0.25,-1.13,-1.01,0,*6F
1520827558.11,53050,8.38,72262.3,-0.25,-1.09,-1.09,0,*64
1520827559.35,53051,8.38,72254.0,-0.25,-1.13,-1.09,0,*6E
1520827560.59,53052,8.38,72268.8,-0.25,-1.09,-1.09,0,*66
1520827561.84,53053,8.38,72268.8,-0.23,-1.09,-1.09,0,*61
1520827563.1,53054,8.38,72266.3,-0.23,-1.09,-1.09,0,*66
1520827564.34,53055,8.38,72262.3,-0.25,-1.09,-1.01,0,*69
1520827565.6,53056,8.38,72274.3,-0.23,-1.09,-1.09,0,*64
1520827566.85,53057,8.38,72264.0,-0.23,-1.09,-1.09,0,*65
1520827568.09,53058,8.38,72254.0,-0.25,-1.09,-1.09,0,*6C
1520827569.33,53059,8.38,72274.0,-0.25,-1.09,-1.09,0,*6D
1520827570.57,53060,8.38,72268.8,-0.25,-1.09,-1.09,0,*67
1520827571.83,53061,8.38,72290.5,-0.23,-1.01,-1.01,0,*60
1520827573.08,53062,8.38,72260.0,-0.23,-1.09,-1.13,0,*68
1520827574.32,53063,8.38,72224.3,-0.25,-1.13,-1.13,0,*64
1520827575.56,53064,8.38,72202.8,-0.25,-1.13,-1.13,0,*63
1520827576.8,53065,8.38,72200.8,-0.25,-1.13,-1.13,0,*62
1520827578.01,53066,8.38,72242.5,-0.25,-1.21,-1.13,0,*60
1520827579.25,53067,8.38,72246.0,-0.25,-1.13,-1.09,0,*6B
1520827580.49,53068,8.38,72224.3,-0.25,-1.13,-1.13,0,*6F
1520827581.73,53069,8.38,72226.8,-0.25,-1.09,-1.01,0,*66
1520827582.95,53070,8.38,72234.5,-0.25,-1.13,-1.21,0,*67
1520827584.19,53071,8.38,72230.5,-0.25,-1.13,-1.13,0,*67
1520827585.42,53072,8.38,72228.5,-0.25,-1.09,-1.13,0,*6F
1520827586.66,53073,8.38,72222.5,-0.25,-1.09,-1.13,0,*6E
1520827587.9,53074,8.38,72222.5,-0.25,-1.13,-1.13,0,*62
1520827589.14,53075,8.38,72230.0,-0.25,-1.13,-1.13,0,*63
1520827590.37,53076,8.38,72234.0,-0.25,-1.13,-1.13,0,*60
1520827591.59,53077,8.38,72226.0,-0.23,-1.21,-1.21,0,*67
1520827592.83,53078,8.38,72222.5,-0.25,-1.13,-1.13,0,*6E
1520827594.09,53079,8.38,72226.0,-0.23,-1.13,-1.13,0,*69
1520827595.31,53080,8.38,72244.5,-0.25,-1.13,-1.21,0,*68
1520827596.53,53081,8.38,72236.0,-0.25,-1.13,-1.21,0,*69
1520827597.77,53082,8.38,72234.5,-0.25,-1.13,-1.13,0,*6B
1520827598.99,53083,8.38,72236.5,-0.25,-1.13,-1.21,0,*6B
1520827600.25,53084,8.38,72236.3,-0.23,-1.13,-1.09,0,*60
1520827601.49,53085,8.38,72262.5,-0.25,-1.13,-1.09,0,*67
1520827602.73,53086,8.38,72242.8,-0.23,-1.21,-1.13,0,*68
1520827603.96,53087,8.38,72238.3,-0.25,-1.09,-1.13,0,*65
1520827605.2,53088,8.38,72230.0,-0.23,-1.21,-1.13,0,*66
1520827606.44,53089,8.38,72228.3,-0.25,-1.13,-1.13,0,*60
1520827607.68,53090,8.38,72228.0,-0.25,-1.13,-1.13,0,*68
1520827608.91,53091,8.38,72234.3,-0.25,-1.09,-1.13,0,*62
1520827610.13,53092,8.38,72244.0,-0.27,-1.17,-1.17,0,*68
1520827611.35,53093,8.38,72250.0,-0.27,-1.17,-1.17,0,*69
1520827612.59,53094,8.38,72256.8,-0.25,-1.13,-1.13,0,*6C
1520827613.81,53095,8.38,72250.0,-0.25,-1.13,-1.21,0,*6C
1520827615.05,53096,8.38,72260.5,-0.25,-1.13,-1.13,0,*6E
1520827616.31,53097,8.38,72272.0,-0.23,-1.13,-1.13,0,*69
1520827617.56,53098,8.38,72282.0,-0.23,-1.09,-1.09,0,*66
1520827618.78,53099,8.38,72298.5,-0.27,-1.17,-1.17,0,*63
1520827620.02,53100,8.38,72268.3,-0.25,-1.13,-1.13,0,*60
1520827621.24,53101,8.38,72268.3,-0.25,-1.13,-1.21,0,*60
1520827622.46,53102,8.38,72266.0,-0.25,-1.21,-1.13,0,*63
1520827623.68,53103,8.38,72262.8,-0.25,-1.13,-1.21,0,*62
1520827624.92,53104,8.38,72268.8,-0.25,-1.09,-1.13,0,*6F
1520827626.15,53105,8.38,72242.0,-0.25,-1.09,-1.13,0,*6E
1520827627.39,53106,8.38,72240.8,-0.25,-1.13,-1.09,0,*6D
1520827628.63,53107,8.38,72242.3,-0.25,-1.09,-1.13,0,*6C
1520827629.86,53108,8.38,72246.8,-0.25,-1.13,-1.13,0,*68
1520827631.08,53109,8.38,72254.3,-0.25,-1.21,-1.09,0,*63
1520827632.32,53110,8.38,72248.3,-0.25,-1.13,-1.13,0,*61
1520827633.54,53111,8.38,72256.5,-0.25,-1.13,-1.21,0,*61
1520827634.76,53112,8.38,72252.3,-0.25,-1.21,-1.13,0,*62
1520827636.0,53113,8.38,72252.0,-0.25,-1.13,-1.13,0,*62
1520827637.24,53114,8.38,72262.3,-0.25,-1.13,-1.13,0,*65
1520827638.45,53115,8.38,72254.3,-0.25,-1.21,-1.13,0,*65
1520827639.71,53116,8.38,72270.5,-0.23,-1.13,-1.13,0,*61
1520827640.97,53117,8.38,72266.8,-0.23,-1.13,-1.09,0,*6B
1520827642.21,53118,8.38,72272.0,-0.25,-1.13,-1.13,0,*69
1520827643.44,53119,8.38,72272.3,-0.25,-1.13,-1.13,0,*68
1520827644.68,53120,8.38,72282.0,-0.25,-1.13,-1.13,0,*62
1520827645.92,53121,8.38,72260.5,-0.25,-1.13,-1.13,0,*63
1520827647.16,53122,8.38,72260.8,-0.25,-1.13,-1.09,0,*6B
1520827648.4,53123,8.38,72256.0,-0.25,-1.13,-1.13,0,*61
1520827649.64,53124,8.38,72244.3,-0.25,-1.13,-1.13,0,*66
1520827650.86,53125,8.38,72256.5,-0.25,-1.13,-1.21,0,*66
1520827652.1,53126,8.38,72248.0,-0.25,-1.13,-1.09,0,*6F
1520827653.34,53127,8.38,72254.0,-0.25,-1.13,-1.13,0,*65
1520827654.58,53128,8.38,72262.8,-0.25,-1.13,-1.13,0,*6A
1520827655.82,53129,8.38,72252.8,-0.25,-1.13,-1.13,0,*6B
1520827657.06,53130,8.38,72254.0,-0.25,-1.13,-1.09,0,*68
1520827658.28,53131,8.38,72260.3,-0.25,-1.13,-1.21,0,*63
1520827659.49,53132,8.38,72264.5,-0.25,-1.21,-1.13,0,*60
1520827660.73,53133,8.38,72268.3,-0.25,-1.13,-1.13,0,*60
1520827661.93,53134,8.38,72250.8,-0.25,-1.21,-1.21,0,*67
1520827663.17,53135,8.38,72230.8,-0.25,-1.13,-1.13,0,*66
1520827664.39,53136,8.38,72238.5,-0.25,-1.13,-1.21,0,*64
1520827665.61,53137,8.38,72222.0,-0.25,-1.21,-1.13,0,*65
1520827666.83,53138,8.38,72214.3,-0.25,-1.13,-1.21,0,*6A
1520827668.07,53139,8.38,72244.8,-0.25,-1.13,-1.13,0,*6A
1520827669.3,53140,8.38,72228.3,-0.25,-1.13,-1.13,0,*64
1520827670.54,53141,8.38,72250.8,-0.25,-1.13,-1.13,0,*65
1520827671.8,53142,8.38,72252.3,-0.23,-1.13,-1.13,0,*60
1520827673.04,53143,8.38,72258.3,-0.25,-1.13,-1.09,0,*6C
1520827674.28,53144,8.38,72278.0,-0.25,-1.09,-1.01,0,*68
1520827675.52,53145,8.38,72276.3,-0.27,-1.13,-1.17,0,*67
1520827676.78,53146,8.38,72276.0,-0.27,-1.13,-1.13,0,*60
1520827678.03,53147,8.38,72262.0,-0.27,-1.13,-1.13,0,*61
1520827679.28,53148,8.38,72264.5,-0.25,-1.13,-1.09,0,*67
1520827680.51,53149,8.38,72278.0,-0.25,-1.09,-1.01,0,*65
1520827681.75,53150,8.38,72266.8,-0.25,-1.01,-1.09,0,*6D
1520827683.0,53151,8.38,72282.0,-0.25,-1.01,-1.01,0,*64
1520827684.24,53152,8.38,72292.5,-0.25,-1.01,-1.01,0,*67
1520827685.48,53153,8.38,72292.3,-0.25,-0.97,-1.01,0,*58
1520827686.74,53154,8.38,72288.0,-0.23,-1.01,-1.01,0,*67
1520827687.97,53155,8.38,72284.5,-0.25,-0.97,-1.01,0,*5E
1520827689.22,53156,8.38,72294.5,-0.25,-1.01,-1.01,0,*63
1520827690.45,53157,8.38,72282.8,-0.25,-0.97,-0.97,0,*62
1520827691.68,53158,8.38,72288.8,-0.25,-0.97,-0.97,0,*6D
1520827692.9,53159,8.38,72248.0,-0.25,-0.93,-0.93,0,*6C
1520827694.15,53160,8.38,72238.8,-0.23,-0.93,-0.97,0,*64
1520827695.4,53161,8.38,72234.8,-0.23,-0.93,-0.93,0,*61
1520827696.63,53162,8.38,72234.8,-0.25,-0.97,-0.97,0,*64
1520827697.88,53163,8.38,72236.0,-0.23,-0.97,-0.93,0,*67
1520827699.11,53164,8.38,72270.5,-0.25,-0.97,-0.93,0,*66
1520827700.35,53165,8.38,72262.8,-0.23,-0.93,-0.93,0,*65
1520827701.59,53166,8.38,72280.0,-0.25,-0.97,-0.93,0,*64
1520827702.84,53167,8.38,72260.8,-0.23,-0.97,-0.93,0,*63
1520827704.08,53168,8.38,72266.3,-0.23,-0.93,-0.93,0,*68
1520827705.33,53169,8.38,72250.0,-0.23,-0.97,-0.97,0,*69
1520827706.57,53170,8.38,72256.0,-0.25,-0.97,-0.97,0,*67
1520827707.82,53171,8.38,72256.5,-0.23,-0.97,-0.93,0,*64
1520827709.06,53172,8.38,72274.3,-0.23,-0.93,-0.93,0,*63
1520827710.31,53173,8.38,72272.5,-0.23,-0.97,-0.93,0,*66
1520827711.56,53174,8.38,72274.5,-0.23,-0.93,-0.97,0,*61
1520827712.81,53175,8.38,72278.5,-0.23,-0.93,-0.93,0,*64
1520827714.06,53176,8.38,72274.0,-0.23,-0.97,-0.93,0,*63
1520827715.31,53177,8.38,72282.5,-0.23,-0.97,-0.97,0,*66
1520827716.53,53178,8.38,72256.0,-0.21,-0.89,-0.89,0,*6B
1520827717.76,53179,8.38,72218.8,-0.21,-0.89,-0.93,0,*61
1520827718.98,53180,8.38,72228.8,-0.21,-0.89,-0.89,0,*6C
1520827720.2,53181,8.38,72268.5,-0.21,-0.93,-0.89,0,*66